Location: Hilton Head Island
(32.2163°N, 80.7526°W)
Time: 22:12:10
(UTC-05:00)

Explorer 7 - Pass Details

Date: 18 February 2026
Orbit: 430 x 542 km, 50.2° (Epoch: 5 March)

Event Time Altitude Azimuth Distance (km) Brightness Sun altitude
Rises 12:50:45 0° 183° (S) 2,378 10.8 46.2°
Reaches altitude 10° 12:53:57 10° 150° (SSE) 1,524 9.8 46.2°
Maximum altitude 12:55:17 12° 127° (SE) 1,420 9.4 46.1°
Drops below altitude 10° 12:56:38 10° 103° (ESE) 1,539 9.3 46.1°
Sets 12:59:54 0° 71° (ENE) 2,433 9.9 46.0°
